Weather reports worldwide

Advertisment
Orense, Spain (8048): temperature & dewpoint: 06.12.2018 00:00:00 - 12.12.2018 00:00:00 (CET)Orense, Spain (8048): wind speed: 06.12.2018 00:00:00 - 12.12.2018 00:00:00 (CET)Orense, Spain (8048): wind direction: 06.12.2018 00:00:00 - 12.12.2018 00:00:00 (CET)Orense, Spain (8048): reduced air pressure: 06.12.2018 00:00:00 - 12.12.2018 00:00:00 (CET)Orense, Spain (8048): visibility: 06.12.2018 00:00:00 - 12.12.2018 00:00:00 (CET)Orense, Spain (8048): precipitation: 06.12.2018 00:00:00 - 12.12.2018 00:00:00 (CET)
Date & Time tt [°C] td [°C] ff [km/h] ff [kn] dd ppp [hPa] vv [km] rr [mm]
12.12.2018 00:00:00 9,4 8,0 2 1 WSW 1023,4 6 0,0
11.12.2018 23:00:00 9,7 8,1 2 1 W 1023,8 8 0,0
11.12.2018 22:00:00 9,8 8,1 4 2 WNW 1023,7 8 -
11.12.2018 21:00:00 9,9 8,0 2 1 E 1023,7 6 0,0
11.12.2018 20:00:00 10,5 8,1 2 1 SE 1023,6 9 0,0
11.12.2018 19:00:00 10,7 7,9 4 2 W 1023,5 10 -
11.12.2018 18:00:00 11,3 7,2 2 1 W 1022,9 13 0,0
11.12.2018 17:00:00 13,7 7,7 4 2 SSW 1022,3 20 0,0
11.12.2018 16:00:00 12,2 6,9 2 1 ESE 1021,2 19 -
11.12.2018 15:00:00 12,4 6,9 4 2 SW 1021,3 18 0,0
11.12.2018 14:00:00 11,0 5,9 4 2 S 1022,2 19 0,0
11.12.2018 13:00:00 9,2 6,1 2 1 S 1023,0 13 -
11.12.2018 12:00:00 5,8 4,9 2 1 SW 1024,6 7 0,0
11.12.2018 11:00:00 4,3 4,2 4 2 SE 1024,5 6 0,0
11.12.2018 10:00:00 3,6 3,5 2 1 S 1023,9 4,1 -
11.12.2018 09:00:00 3,4 3,3 4 2 S 1023,6 4,0 0,0
11.12.2018 08:00:00 3,0 2,7 2 1 WSW 1023,7 7 0,0
11.12.2018 07:00:00 3,0 2,7 2 1 WSW 1023,3 0,2 -
11.12.2018 06:00:00 2,6 2,2 0 0 N 1023,4 7 0,0
11.12.2018 05:00:00 2,3 1,7 2 1 NNW 1023,7 18 0,0
11.12.2018 04:00:00 2,7 2,1 0 0 N 1024,2 14 -
11.12.2018 03:00:00 3,1 2,5 0 0 N 1024,5 14 0,0
11.12.2018 02:00:00 3,6 3,0 2 1 W 1025,2 9 0,0
11.12.2018 01:00:00 3,9 3,2 2 1 SE 1025,7 4,5 -
11.12.2018 00:00:00 4,6 3,9 0 0 N 1025,6 4,5 0,0
10.12.2018 23:00:00 5,1 4,2 0 0 N 1025,7 4,8 0,0
10.12.2018 22:00:00 5,7 4,7 0 0 N 1026,0 - -
10.12.2018 21:00:00 6,5 5,1 0 0 N 1026,1 7 0,0
10.12.2018 20:00:00 7,4 5,7 2 1 ESE 1026,2 - 0,0
10.12.2018 19:00:00 8,8 6,6 2 1 E 1026,4 - -
10.12.2018 18:00:00 10,8 7,7 2 1 E 1026,1 3,7 0,0
10.12.2018 17:00:00 12,3 7,2 2 1 SE 1026,2 2,6 0,0
10.12.2018 16:00:00 12,3 7,0 4 2 SSE 1026,4 20 -
10.12.2018 15:00:00 12,0 7,3 2 1 SSW 1027,3 19 0,0
10.12.2018 14:00:00 9,5 6,9 4 2 SE 1028,8 15 0,0
10.12.2018 13:00:00 9,5 6,6 5 3 SE 1030,0 11 -
10.12.2018 12:00:00 7,7 6,5 4 2 SSE 1031,3 12 0,0
10.12.2018 11:00:00 6,9 6,0 5 3 SSW 1031,8 8 0,0
10.12.2018 10:00:00 6,4 5,8 4 2 SE 1031,9 11 -
10.12.2018 09:00:00 6,8 6,2 4 2 SE 1031,9 9 0,0
10.12.2018 08:00:00 7,0 6,4 4 2 SSE 1031,6 10 0,0
10.12.2018 07:00:00 7,2 6,6 4 2 SSE 1031,8 13 -
10.12.2018 06:00:00 7,4 6,8 2 1 SE 1032,0 - 0,0
10.12.2018 05:00:00 7,7 6,9 4 2 SE 1032,3 11 0,0
10.12.2018 04:00:00 7,9 7,0 4 2 SSE 1033,1 17 -
10.12.2018 03:00:00 8,1 7,5 4 2 SSE 1033,2 9 0,0
10.12.2018 02:00:00 8,1 7,2 4 2 SSE 1033,4 13 0,0
10.12.2018 01:00:00 8,2 7,3 4 2 SSW 1034,0 13 -
10.12.2018 00:00:00 8,4 7,3 4 2 S 1033,8 12 0,0
09.12.2018 23:00:00 8,9 8,0 4 2 S 1033,6 12 0,0
09.12.2018 22:00:00 9,4 8,6 5 3 S 1033,5 - -
09.12.2018 21:00:00 9,9 9,1 4 2 SSW 1033,2 4,9 0,0
09.12.2018 20:00:00 10,1 9,0 4 2 SSW 1032,9 6 0,0
09.12.2018 19:00:00 11,0 9,3 4 2 S 1032,6 9 -
09.12.2018 18:00:00 12,1 10,0 2 1 ENE 1032,1 12 0,0
09.12.2018 17:00:00 12,7 9,7 5 3 SE 1031,8 14 0,0
09.12.2018 16:00:00 12,3 10,0 4 2 S 1031,7 17 -
09.12.2018 15:00:00 12,0 9,9 5 3 S 1032,1 16 0,0
09.12.2018 14:00:00 11,5 9,6 4 2 ESE 1032,7 16 0,0
09.12.2018 13:00:00 11,3 9,7 4 2 SSE 1033,3 16 -
09.12.2018 12:00:00 10,9 9,7 4 2 S 1034,1 6 0,0
09.12.2018 11:00:00 10,1 9,3 4 2 S 1034,1 4,5 0,0
09.12.2018 10:00:00 9,4 8,8 2 1 WSW 1033,7 6 -
09.12.2018 09:00:00 8,8 8,0 2 1 E 1033,4 5 0,0
09.12.2018 08:00:00 9,3 8,2 2 1 SSE 1033,0 4,5 0,0
09.12.2018 07:00:00 9,7 8,6 2 1 S 1032,8 - -
09.12.2018 06:00:00 9,7 8,6 2 1 ESE 1032,9 - 0,0
09.12.2018 05:00:00 9,6 8,5 2 1 SE 1032,9 4,4 0,0
09.12.2018 04:00:00 9,5 8,6 2 1 SE 1032,7 4,9 -
09.12.2018 03:00:00 9,3 8,2 2 1 SW 1032,4 4,7 0,0
09.12.2018 02:00:00 9,3 8,1 2 1 S 1032,8 6 0,0
09.12.2018 01:00:00 9,4 8,2 2 1 SW 1033,3 6 -
09.12.2018 00:00:00 9,2 8,0 2 1 SSE 1033,1 6 0,0
08.12.2018 23:00:00 9,0 7,8 2 1 SE 1033,0 3,7 0,0
08.12.2018 22:00:00 8,7 7,6 0 0 N 1033,1 4,5 -
08.12.2018 21:00:00 8,5 7,4 2 1 ENE 1033,0 4,7 0,0
08.12.2018 20:00:00 8,5 7,3 2 1 W 1032,8 - 0,0
08.12.2018 19:00:00 8,5 7,0 2 1 SW 1032,4 4,0 -
08.12.2018 18:00:00 10,4 7,6 2 1 SW 1031,8 - 0,0
08.12.2018 17:00:00 11,1 8,0 2 1 NE 1031,8 6 0,0
08.12.2018 16:00:00 10,6 7,7 5 3 W 1031,5 9 -
08.12.2018 15:00:00 8,4 7,0 2 1 SSW 1032,4 7 0,0
08.12.2018 14:00:00 7,5 6,8 4 2 SSE 1032,8 6 0,0
08.12.2018 13:00:00 6,8 6,4 4 2 SSW 1033,4 4,7 -
08.12.2018 12:00:00 6,4 6,1 4 2 SE 1033,7 4,5 0,0
08.12.2018 11:00:00 5,9 5,8 2 1 SW 1033,9 1,7 0,0
08.12.2018 10:00:00 5,3 5,0 4 2 S 1033,8 2,0 -
08.12.2018 09:00:00 5,6 5,3 5 3 SSE 1033,8 2,2 0,0
08.12.2018 08:00:00 5,8 5,5 4 2 S 1033,4 0,9 0,0
08.12.2018 07:00:00 6,4 6,1 4 2 S 1033,1 1,0 -
08.12.2018 06:00:00 6,5 6,2 4 2 W 1032,6 0,7 0,2
08.12.2018 05:00:00 6,7 6,4 4 2 W 1032,5 0,3 0,0
08.12.2018 04:00:00 7,1 6,8 4 2 WSW 1032,7 0,2 -
08.12.2018 03:00:00 7,2 6,8 2 1 SW 1032,4 0,2 0,0
08.12.2018 02:00:00 7,3 6,4 2 1 SW 1032,1 4,3 0,0
08.12.2018 01:00:00 8,2 7,3 2 1 S 1032,0 6 -
08.12.2018 00:00:00 9,3 8,5 2 1 SE 1031,6 6 0,0
07.12.2018 23:00:00 9,9 9,1 4 2 W 1031,6 3,6 0,0
07.12.2018 22:00:00 10,4 9,6 2 1 SE 1031,2 7 -
07.12.2018 21:00:00 11,0 10,1 0 0 N 1030,6 6 0,0
07.12.2018 20:00:00 12,0 10,6 4 2 E 1030,0 11 0,0
07.12.2018 19:00:00 13,5 11,9 2 1 SE 1029,7 18 -
07.12.2018 18:00:00 14,2 11,7 2 1 E 1029,1 15 0,0
07.12.2018 17:00:00 14,4 11,4 8 4 SW 1028,7 20 0,0
07.12.2018 16:00:00 14,5 11,3 5 3 SW 1028,4 20 -
07.12.2018 15:00:00 14,1 10,9 8 4 SSW 1028,4 20 0,0
07.12.2018 14:00:00 13,0 10,4 2 1 SW 1028,7 17 0,0
07.12.2018 13:00:00 12,0 9,4 2 1 S 1029,3 18 -
07.12.2018 12:00:00 11,0 8,9 4 2 N 1029,8 16 0,0
07.12.2018 11:00:00 9,8 8,4 2 1 S 1030,1 15 0,0
07.12.2018 10:00:00 8,8 7,9 4 2 SW 1030,3 14 -
07.12.2018 09:00:00 8,0 7,2 2 1 WSW 1030,3 13 0,0
07.12.2018 08:00:00 7,4 6,8 2 1 SE 1030,1 15 0,0
07.12.2018 07:00:00 6,6 6,2 9 5 SSE 1030,0 - -
07.12.2018 06:00:00 6,2 5,8 4 2 SW 1030,3 6 0,0
07.12.2018 05:00:00 6,0 5,6 2 1 WSW 1029,8 11 0,0
07.12.2018 04:00:00 6,1 5,8 4 2 WSW 1030,2 0,3 -
07.12.2018 03:00:00 6,3 5,9 4 2 SSW 1030,1 0,2 0,0
07.12.2018 02:00:00 5,9 5,3 2 1 S 1030,3 0,3 0,0
07.12.2018 01:00:00 5,5 4,5 2 1 W 1030,6 15 -
07.12.2018 00:00:00 6,0 4,8 0 0 N 1030,7 16 0,0
06.12.2018 23:00:00 6,9 5,7 2 1 W 1030,7 10 0,0
06.12.2018 22:00:00 7,8 6,3 0 0 N 1030,6 10 -
06.12.2018 21:00:00 9,1 7,0 2 1 S 1030,6 16 0,0
06.12.2018 20:00:00 10,5 7,9 2 1 SW 1030,4 11 0,0
06.12.2018 19:00:00 12,8 9,1 2 1 W 1029,8 18 -
06.12.2018 18:00:00 16,1 10,0 4 2 W 1029,2 20 0,0
06.12.2018 17:00:00 18,1 9,4 4 2 NNE 1029,0 20 0,0
06.12.2018 16:00:00 18,3 9,1 4 2 NNE 1029,0 20 -
06.12.2018 15:00:00 17,5 9,9 4 2 N 1029,6 20 0,0
06.12.2018 14:00:00 16,8 11,1 4 2 NNE 1030,1 20 0,0
06.12.2018 13:00:00 15,2 11,4 4 2 NNE 1030,9 17 -
06.12.2018 12:00:00 12,8 10,7 4 2 NNE 1031,6 19 0,0
06.12.2018 11:00:00 9,8 9,7 2 1 WSW 1031,9 - 0,0
06.12.2018 10:00:00 9,2 8,9 2 1 WSW 1031,5 0,1 -
06.12.2018 09:00:00 9,1 8,8 2 1 SW 1030,8 0,3 0,0
06.12.2018 08:00:00 8,7 8,2 0 0 N 1030,3 3,1 0,0
06.12.2018 07:00:00 8,9 8,0 0 0 N 1029,8 7 -
06.12.2018 06:00:00 10,0 9,1 2 1 SW 1029,6 6 0,0
06.12.2018 05:00:00 11,0 10,1 2 1 ENE 1029,5 11 0,0
06.12.2018 04:00:00 11,6 10,3 0 0 N 1029,4 9 -
06.12.2018 03:00:00 12,7 11,3 2 1 E 1028,7 14 0,0
06.12.2018 02:00:00 13,2 11,6 2 1 W 1028,7 17 0,0
06.12.2018 01:00:00 13,4 11,6 0 0 N 1028,8 16 -
06.12.2018 00:00:00 13,5 11,7 2 1 SE 1028,5 15 0,0

tt = temperature
td = dewpoint
ff = wind speed
dd = wind direction
ppp = reduced air pressure
vv = visibility
rr = precipitation

Next stations